Location: Paris
(48.6709°N, 2.3750°E)
Time: 18:56:25
(UTC+02:00)

CUBESAT XI-V - Pass Details

Date: 28 June 2022
Orbit: 667 x 690 km, 98.1° (Epoch: 08 August)

Event Time Altitude Azimuth Distance (km) Brightness Sun altitude
Exits shadow 03:09:55 16° 151° (SSE) 1,752 ? -16.1°
Maximum altitude 03:13:34 64° 72° (ENE) 748 ? -15.9°
Drops below altitude 10° 03:18:08 10° 352° (N) 2,113 ? -15.6°
Sets 03:20:23 0° 349° (N) 3,029 ? -15.5°
